Cold Bay, AK

9:09 AM AKDT on July 25, 2016 (GMT -0800)
Cold Bay

Weather History for PACD - October, 2012

Change the Weather History Date:

Tuesday, October 2, 2012

  Actual Average Record
Temperature  
Mean Temperature 50 °F 44 °F  
Max Temperature 55 °F 49 °F 57 °F (1954)
Min Temperature 44 °F 39 °F 29 °F (2002)
Degree Days  
Heating Degree Days 15 21  
Month to date heating degree days 33 42  
Since 1 July heating degree days 1550 1393  
Cooling Degree Days 0    
Month to date cooling degree days 0  
Year to date cooling degree days 0  
Moisture  
Dew Point 44 °F    
Average Humidity 0    
Maximum Humidity 0    
Minimum Humidity 0    
Precipitation  
Precipitation 0.65 in 0.16 in 1.57 in (1952)
Month to date precipitation 0.76 0.32  
Year to date precipitation 31.92 27.79  
Snow  
Snow 0.00 in 0.00 in 0.70 in (2010)
Month to date snowfall 0.0 0.0  
Since 1 July snowfall T 0.0  
Since 1 September snowfall 0.0 0.0  
Snow Depth 0.00 in    
Sea Level Pressure  
Sea Level Pressure 29.68 in    
Wind  
Wind Speed 22 mph (SSE)    
Max Wind Speed 44 mph    
Max Gust Speed 58 mph    
Visibility 8 miles    
Events Rain    
T = Trace of Precipitation, MM = Missing Value Source: NWS Daily Summary

Daily Weather History Graph

Daily Weather History Graph

Search for Another Location

Airport or City:

Trip Planner

Search our weather history database for the weather conditions in past years. The results will help you decide how hot, cold, wet, or windy it might be!

Date:

Astronomy

Oct. 02, 2012 Rise Set
Actual Time 8:56 AM AKDT 8:22 PM AKDT
Civil Twilight 8:20 AM AKDT 8:58 PM AKDT
Nautical Twilight 7:38 AM AKDT 9:40 PM AKDT
Astronomical Twilight 6:54 AM AKDT 10:24 PM AKDT
Moon 9:04 PM AKDT (10/2) 12:11 PM AKDT (10/2)
Length of Visible Light 12h 37m
Length of Day
11h 25m
Waning Gibbous, 93% of the Moon is Illuminated
Oct 2
Waning Gibbous
Oct 7
Last Quarter
Oct 15
New
Oct 21
First Quarter
Oct 29
Full

Hourly Weather History & Observations

Time (AKDT) Temp. Windchill Dew Point Humidity Pressure Visibility Wind Dir Wind Speed Gust Speed Precip Events Conditions
12:35 AM 44.6 °F 35.1 °F 41.0 °F 87% 29.76 in 7.0 mi SSE 27.6 mph 43.7 mph 0.03 in Rain Rain
12:53 AM 45.0 °F 34.4 °F 41.0 °F 86% 29.75 in 5.0 mi SSE 35.7 mph 44.9 mph 0.06 in Rain Rain
1:53 AM 44.1 °F 33.5 °F 41.0 °F 89% 29.72 in 4.0 mi SSE 33.4 mph 51.8 mph 0.09 in Rain Light Rain
2:53 AM 44.1 °F 32.9 °F 43.0 °F 96% 29.68 in 4.0 mi SE 38.0 mph 56.4 mph 0.16 in   Overcast
3:31 AM 44.6 °F 34.4 °F 42.8 °F 93% 29.69 in 2.5 mi SE 32.2 mph 41.4 mph 0.09 in Rain Light Rain
3:41 AM 44.6 °F 34.4 °F 42.8 °F 93% 29.67 in 3.0 mi SSE 32.2 mph 47.2 mph 0.10 in Rain Light Rain
3:53 AM 45.0 °F 35.6 °F 43.0 °F 93% 29.66 in 3.0 mi SE 27.6 mph 39.1 mph 0.15 in Rain Light Rain
4:05 AM 44.6 °F 34.6 °F 44.6 °F 100% 29.65 in 3.0 mi SE 31.1 mph 41.4 mph 0.03 in Rain Light Rain
4:27 AM 44.6 °F 34.1 °F 44.6 °F 100% 29.64 in 2.5 mi SSE 34.5 mph 43.7 mph 0.04 in Rain Light Rain
4:38 AM 44.6 °F 34.7 °F 44.6 °F 100% 29.64 in 2.5 mi SSE 29.9 mph 43.7 mph 0.07 in Rain Light Rain
4:53 AM 46.0 °F 36.7 °F 44.1 °F 93% 29.63 in 3.0 mi SE 29.9 mph 39.1 mph 0.10 in Rain Light Rain
5:02 AM 46.4 °F 37.5 °F 44.6 °F 93% 29.63 in 4.0 mi SE 27.6 mph 38.0 mph 0.00 in Rain Light Rain
5:53 AM 46.0 °F 36.5 °F 45.0 °F 96% 29.59 in 5.0 mi SSE 31.1 mph 43.7 mph 0.09 in Rain Light Rain
6:53 AM 46.9 °F - 45.0 °F 93% 29.56 in 5.0 mi SSE 35.7 mph 48.3 mph 0.04 in Rain Light Rain
7:08 AM 46.4 °F 36.7 °F 46.4 °F 100% 29.56 in 4.0 mi SSE 33.4 mph 44.9 mph 0.00 in Rain Light Rain
7:25 AM 46.4 °F 37.2 °F 44.6 °F 93% 29.57 in 5.0 mi SSE 29.9 mph 41.4 mph 0.02 in Rain Light Rain
7:33 AM 46.4 °F 37.9 °F 44.6 °F 93% 29.57 in 6.0 mi SSE 25.3 mph 39.1 mph 0.02 in Rain Light Rain
7:53 AM 46.9 °F - 45.0 °F 93% 29.57 in 9.0 mi SSE 28.8 mph 33.4 mph 0.02 in Rain Light Rain
8:35 AM 46.4 °F 38.3 °F 44.6 °F 93% 29.57 in 10.0 mi SSE 23.0 mph 33.4 mph 0.00 in Rain Light Rain
8:44 AM 46.4 °F 38.5 °F 44.6 °F 93% 29.57 in 10.0 mi SSE 21.9 mph - 0.00 in   Scattered Clouds
8:53 AM 46.0 °F 38.8 °F 45.0 °F 96% 29.58 in 10.0 mi SSE 18.4 mph 28.8 mph 0.00 in   Scattered Clouds
9:24 AM 46.4 °F 39.5 °F 44.6 °F 93% 29.59 in 10.0 mi SSE 17.3 mph 24.2 mph N/A   Mostly Cloudy
9:53 AM 46.9 °F - 45.0 °F 93% 29.61 in 10.0 mi SE 5.8 mph - N/A   Mostly Cloudy
10:37 AM 48.2 °F - 44.6 °F 87% 29.64 in 10.0 mi SSE 9.2 mph - N/A   Overcast
10:53 AM 48.9 °F - 46.0 °F 90% 29.65 in 10.0 mi SE 8.1 mph 16.1 mph N/A   Mostly Cloudy
11:53 AM 48.9 °F - 46.0 °F 90% 29.69 in 10.0 mi SE 10.4 mph - N/A   Mostly Cloudy
12:53 PM 48.9 °F - 45.0 °F 86% 29.71 in 10.0 mi SSE 19.6 mph - N/A   Mostly Cloudy
1:53 PM 52.0 °F - 46.9 °F 83% 29.73 in 10.0 mi SSE 13.8 mph 19.6 mph N/A   Overcast
2:13 PM 51.8 °F - 44.6 °F 76% 29.73 in 10.0 mi SSE 10.4 mph 16.1 mph N/A   Overcast
2:38 PM 51.8 °F - 46.4 °F 82% 29.73 in 10.0 mi SE 11.5 mph - N/A   Mostly Cloudy
2:53 PM 53.1 °F - 46.0 °F 77% 29.73 in 10.0 mi SE 15.0 mph - N/A   Partly Cloudy
3:53 PM 54.0 °F - 45.0 °F 72% 29.74 in 10.0 mi SE 11.5 mph - N/A   Partly Cloudy
4:53 PM 51.1 °F - 46.0 °F 83% 29.75 in 10.0 mi SSE 16.1 mph - N/A   Mostly Cloudy
5:53 PM 48.9 °F - 44.1 °F 83% 29.74 in 10.0 mi SE 15.0 mph - N/A   Clear
6:53 PM 46.9 °F - 43.0 °F 86% 29.76 in 10.0 mi SSE 24.2 mph 35.7 mph N/A   Scattered Clouds
7:00 PM 46.4 °F 37.7 °F 42.8 °F 87% 29.76 in 10.0 mi SSE 26.5 mph 33.4 mph N/A   Mostly Cloudy
7:33 PM 46.4 °F 38.1 °F 42.8 °F 87% 29.74 in 10.0 mi SE 24.2 mph 32.2 mph N/A   Mostly Cloudy
7:35 PM 46.4 °F 38.1 °F 42.8 °F 87% 29.75 in 10.0 mi SSE 24.2 mph 32.2 mph N/A   Mostly Cloudy
7:43 PM 46.4 °F 38.5 °F 42.8 °F 87% 29.75 in 10.0 mi SSE 21.9 mph 31.1 mph N/A   Overcast
7:53 PM 46.0 °F 38.3 °F 43.0 °F 89% 29.75 in 10.0 mi SSE 20.7 mph 27.6 mph N/A   Mostly Cloudy
8:01 PM 46.4 °F 39.2 °F 42.8 °F 87% 29.75 in 10.0 mi SSE 18.4 mph 26.5 mph N/A   Scattered Clouds
8:53 PM 46.0 °F 36.7 °F 44.1 °F 93% 29.76 in 10.0 mi SSE 29.9 mph 39.1 mph N/A   Mostly Cloudy
9:33 PM 46.4 °F 38.7 °F 44.6 °F 93% 29.77 in 6.0 mi SSE 20.7 mph - 0.00 in   Overcast
9:53 PM 46.0 °F 37.8 °F 44.1 °F 93% 29.77 in 8.0 mi SSE 23.0 mph 29.9 mph 0.00 in   Overcast
10:16 PM 46.4 °F 39.2 °F 44.6 °F 93% 29.78 in 10.0 mi SSE 18.4 mph - N/A   Overcast
10:53 PM 46.0 °F 38.5 °F 44.1 °F 93% 29.76 in 10.0 mi SE 19.6 mph 29.9 mph N/A   Overcast
11:53 PM 46.9 °F - 44.1 °F 90% 29.75 in 10.0 mi SE 20.7 mph - N/A   Overcast